timestamp,surface_pressure_avg,surface_temp_avg,battery_voltage,lat,long
2017-09-27 00:00:00+00:00,242.5647,14.0,12.89,47.84626,-54.09684
2017-09-27 00:10:00+00:00,246.0814,14.0,12.89,47.84626,-54.09684
2017-09-27 00:20:00+00:00,251.2898,14.0,12.97,47.84626,-54.09684
2017-09-27 00:30:00+00:00,253.7714,13.96,12.97,47.84626,-54.09684
2017-09-27 00:40:00+00:00,256.0214,13.96,12.97,47.84626,-54.09684
2017-09-27 00:50:00+00:00,261.3264,13.99,12.97,47.84626,-54.09684
2017-09-27 01:00:00+00:00,261.7247,13.99,12.89,47.84626,-54.09684
2017-09-27 01:10:00+00:00,266.0097,13.98,12.81,47.84626,-54.09684
2017-09-27 01:20:00+00:00,273.1347,13.99,12.89,47.84626,-54.09684
2017-09-27 01:30:00+00:00,277.1014,13.99,12.89,47.84626,-54.09684
2017-09-27 01:40:00+00:00,278.8713,14.0,12.89,47.84626,-54.09684
2017-09-27 01:50:00+00:00,286.4564,14.0,12.97,47.84626,-54.09684
2017-09-27 02:00:00+00:00,297.2463,14.0,12.89,47.84626,-54.09684
2017-09-27 02:10:00+00:00,302.5747,13.97,12.81,47.84626,-54.09684
2017-09-27 02:20:00+00:00,305.668,13.95,12.89,47.84626,-54.09684
2017-09-27 02:30:00+00:00,309.0297,13.97,12.89,47.84626,-54.09684
2017-09-27 02:40:00+00:00,313.0298,13.97,12.89,47.84626,-54.09684
2017-09-27 02:50:00+00:00,317.4796,13.93,12.89,47.84626,-54.09684
2017-09-27 03:00:00+00:00,320.2497,13.9,12.89,47.84626,-54.09684
2017-09-27 03:10:00+00:00,319.6146,13.9,12.81,47.84626,-54.09684
2017-09-27 03:20:00+00:00,321.7145,13.9,12.89,47.84626,-54.09684
2017-09-27 03:30:00+00:00,322.6863,13.9,12.89,47.84626,-54.09684
2017-09-27 03:40:00+00:00,325.9147,13.9,12.89,47.84626,-54.09684
2017-09-27 03:50:00+00:00,321.6746,13.9,12.89,47.84626,-54.09684
2017-09-27 04:00:00+00:00,319.2363,13.9,12.89,47.84626,-54.09684
2017-09-27 04:10:00+00:00,324.2413,13.9,12.81,47.84626,-54.09684
2017-09-27 04:20:00+00:00,323.5964,13.9,12.89,47.84626,-54.09684
2017-09-27 04:30:00+00:00,319.878,13.9,12.89,47.84626,-54.09684
2017-09-27 04:40:00+00:00,323.2079,13.9,12.89,47.84626,-54.09684
2017-09-27 04:50:00+00:00,325.0846,13.9,12.89,47.84626,-54.09684
2017-09-27 05:00:00+00:00,316.2913,13.88,12.81,47.84626,-54.09684
2017-09-27 05:10:00+00:00,317.433,13.89,12.81,47.84626,-54.09684
2017-09-27 05:20:00+00:00,324.5196,13.9,12.89,47.84626,-54.09684
2017-09-27 05:30:00+00:00,322.2697,13.89,12.89,47.84626,-54.09684
2017-09-27 05:40:00+00:00,313.463,13.88,12.89,47.84626,-54.09684
2017-09-27 05:50:00+00:00,317.7996,13.88,12.89,47.84626,-54.09684
2017-09-27 06:00:00+00:00,319.0897,13.89,12.81,47.84626,-54.09684
2017-09-27 06:10:00+00:00,312.1896,13.88,12.81,47.84626,-54.09684
2017-09-27 06:20:00+00:00,305.5547,13.87,12.89,47.84626,-54.09684
2017-09-27 06:30:00+00:00,305.6964,13.84,12.89,47.84626,-54.09684
2017-09-27 06:40:00+00:00,303.7313,13.84,12.89,47.84626,-54.09684
2017-09-27 06:50:00+00:00,294.0496,13.8,12.89,47.84626,-54.09684
2017-09-27 07:00:00+00:00,292.438,13.8,12.81,47.84626,-54.09684
2017-09-27 07:10:00+00:00,290.6248,13.8,12.81,47.84626,-54.09684
2017-09-27 07:20:00+00:00,281.3231,13.8,12.89,47.84626,-54.09684
2017-09-27 07:30:00+00:00,272.5248,13.79,12.89,47.84626,-54.09684
2017-09-27 07:40:00+00:00,268.6964,13.79,12.89,47.84626,-54.09684
2017-09-27 07:50:00+00:00,260.0948,13.78,12.89,47.84626,-54.09684
2017-09-27 08:00:00+00:00,251.2747,13.74,12.81,47.84626,-54.09684
2017-09-27 08:10:00+00:00,247.8647,13.75,12.81,47.84626,-54.09684
2017-09-27 08:20:00+00:00,245.5364,13.69,12.89,47.84626,-54.09684
2017-09-27 08:30:00+00:00,242.1714,13.3,12.89,47.84626,-54.09684
2017-09-27 08:40:00+00:00,240.8631,13.3,12.89,47.84626,-54.09684
2017-09-27 08:50:00+00:00,240.9314,13.36,12.89,47.84626,-54.09684
2017-09-27 09:00:00+00:00,239.5098,13.36,12.81,47.84626,-54.09684
2017-09-27 09:10:00+00:00,238.2314,13.38,12.81,47.84626,-54.09684
2017-09-27 09:20:00+00:00,237.7664,13.4,12.81,47.84626,-54.09684
2017-09-27 09:30:00+00:00,237.2881,13.4,12.81,47.84626,-54.09684
2017-09-27 09:40:00+00:00,234.7781,13.4,12.89,47.84626,-54.09684
2017-09-27 09:50:00+00:00,233.6131,13.3,12.89,47.84626,-54.09684
2017-09-27 10:00:00+00:00,235.2414,13.3,12.89,47.84626,-54.09684
2017-09-27 10:10:00+00:00,239.6881,13.44,12.89,47.84626,-54.09684
2017-09-27 10:20:00+00:00,242.5064,13.57,13.05,47.84626,-54.09684
2017-09-27 10:30:00+00:00,242.1681,13.6,13.29,47.84626,-54.09684
2017-09-27 10:40:00+00:00,239.9248,13.6,13.6,47.84626,-54.09684
2017-09-27 10:50:00+00:00,243.4047,13.6,13.92,47.84626,-54.09684
2017-09-27 11:00:00+00:00,250.1147,13.6,13.76,47.84626,-54.09684
2017-09-27 11:10:00+00:00,252.4214,13.5,13.6,47.84626,-54.09684
2017-09-27 11:20:00+00:00,252.9031,13.41,13.53,47.84626,-54.09684
2017-09-27 11:30:00+00:00,255.9964,13.51,13.6,47.84626,-54.09684
2017-09-27 11:40:00+00:00,258.7714,13.61,13.53,47.84626,-54.09684
2017-09-27 11:50:00+00:00,259.2213,13.67,13.44,47.84626,-54.09684
2017-09-27 12:00:00+00:00,261.0448,13.7,13.53,47.84626,-54.09684
2017-09-27 12:10:00+00:00,263.8064,13.7,13.68,47.84626,-54.09684
2017-09-27 12:20:00+00:00,266.3564,13.7,14.08,47.84626,-54.09684
2017-09-27 12:30:00+00:00,268.1847,13.7,13.68,47.84626,-54.09684
2017-09-27 12:40:00+00:00,270.993,13.7,13.53,47.84626,-54.09684
2017-09-27 12:50:00+00:00,271.0781,13.69,13.6,47.84626,-54.09684
2017-09-27 13:00:00+00:00,273.7914,13.7,13.44,47.84626,-54.09684
2017-09-27 13:10:00+00:00,278.048,13.7,13.6,47.84626,-54.09684
2017-09-27 13:20:00+00:00,284.523,13.7,13.44,47.84626,-54.09684
2017-09-27 13:30:00+00:00,285.9014,13.61,13.44,47.84626,-54.09684
2017-09-27 13:40:00+00:00,285.8647,13.7,13.53,47.84626,-54.09684
2017-09-27 13:50:00+00:00,288.8063,13.77,13.44,47.84626,-54.09684
2017-09-27 14:00:00+00:00,294.3764,13.78,13.53,47.84626,-54.09684
2017-09-27 14:10:00+00:00,300.9313,13.79,13.6,47.84626,-54.09684
2017-09-27 14:20:00+00:00,304.8247,13.8,13.6,47.84626,-54.09684
2017-09-27 14:30:00+00:00,311.1397,13.8,13.76,47.84626,-54.09684
2017-09-27 14:40:00+00:00,315.9581,13.8,13.44,47.84626,-54.09684
2017-09-27 14:50:00+00:00,318.9481,13.8,13.53,47.84626,-54.09684
2017-09-27 15:00:00+00:00,319.318,13.8,13.53,47.84626,-54.09684
2017-09-27 15:10:00+00:00,321.6246,13.8,13.53,47.84626,-54.09684
2017-09-27 15:20:00+00:00,323.4896,13.8,13.53,47.84626,-54.09684
2017-09-27 15:30:00+00:00,324.903,13.8,13.53,47.84626,-54.09684
2017-09-27 15:40:00+00:00,328.223,13.8,13.68,47.84626,-54.09684
2017-09-27 15:50:00+00:00,328.3863,13.8,13.6,47.84626,-54.09684
2017-09-27 16:00:00+00:00,325.858,13.8,13.44,47.84626,-54.09684
2017-09-27 16:10:00+00:00,323.6996,13.8,13.68,47.84626,-54.09684
2017-09-27 16:20:00+00:00,327.2613,13.8,13.53,47.84626,-54.09684
2017-09-27 16:30:00+00:00,330.0347,13.8,13.68,47.84626,-54.09684
2017-09-27 16:40:00+00:00,328.528,13.8,13.68,47.84626,-54.09684
2017-09-27 16:50:00+00:00,327.4263,13.8,13.68,47.84626,-54.09684
2017-09-27 17:00:00+00:00,327.3146,13.8,13.6,47.84626,-54.09684
2017-09-27 17:10:00+00:00,325.8914,13.8,13.44,47.84626,-54.09684
2017-09-27 17:20:00+00:00,324.3347,13.8,13.44,47.84626,-54.09684
2017-09-27 17:30:00+00:00,324.3297,13.8,13.44,47.84626,-54.09684
2017-09-27 17:40:00+00:00,319.8097,13.8,13.44,47.84626,-54.09684
2017-09-27 17:50:00+00:00,316.1863,13.8,13.44,47.84626,-54.09684
2017-09-27 18:00:00+00:00,314.2196,13.8,13.44,47.84626,-54.09684
2017-09-27 18:10:00+00:00,312.8163,13.8,13.6,47.84626,-54.09684
2017-09-27 18:20:00+00:00,309.003,13.8,13.76,47.84626,-54.09684
2017-09-27 18:30:00+00:00,308.6396,13.83,13.68,47.84626,-54.09684
2017-09-27 18:40:00+00:00,306.618,13.85,13.68,47.84626,-54.09684
2017-09-27 18:50:00+00:00,298.9197,13.85,13.6,47.84626,-54.09684
2017-09-27 19:00:00+00:00,289.958,13.86,13.53,47.84626,-54.09684
2017-09-27 19:10:00+00:00,285.4447,13.85,13.37,47.84626,-54.09684
2017-09-27 19:20:00+00:00,280.9214,13.86,13.37,47.84626,-54.09684
2017-09-27 19:30:00+00:00,273.6581,13.88,13.37,47.84626,-54.09684
2017-09-27 19:40:00+00:00,267.8181,13.88,13.29,47.84626,-54.09684
2017-09-27 19:50:00+00:00,261.6314,13.87,13.29,47.84626,-54.09684
2017-09-27 20:00:00+00:00,252.8665,13.89,13.21,47.84626,-54.09684
2017-09-27 20:10:00+00:00,244.7064,13.88,13.13,47.84626,-54.09684
2017-09-27 20:20:00+00:00,243.7014,13.89,13.13,47.84626,-54.09684
2017-09-27 20:30:00+00:00,241.7831,13.9,13.13,47.84626,-54.09684
2017-09-27 20:40:00+00:00,234.9948,13.9,13.13,47.84626,-54.09684
2017-09-27 20:50:00+00:00,232.0232,13.9,13.13,47.84626,-54.09684
2017-09-27 21:00:00+00:00,233.6747,13.9,13.05,47.84626,-54.09684
2017-09-27 21:10:00+00:00,229.4698,13.9,12.97,47.84626,-54.09684
2017-09-27 21:20:00+00:00,222.2847,13.9,13.05,47.84626,-54.09684
2017-09-27 21:30:00+00:00,224.9898,13.9,13.05,47.84626,-54.09684
2017-09-27 21:40:00+00:00,233.3381,13.9,13.05,47.84626,-54.09684
2017-09-27 21:50:00+00:00,230.4698,13.9,13.05,47.84626,-54.09684
2017-09-27 22:00:00+00:00,225.0098,13.9,13.05,47.84626,-54.09684
2017-09-27 22:10:00+00:00,231.9631,13.9,12.97,47.84626,-54.09684
2017-09-27 22:20:00+00:00,237.0597,13.9,13.05,47.84626,-54.09684
2017-09-27 22:30:00+00:00,238.3231,13.9,13.05,47.84626,-54.09684
2017-09-27 22:40:00+00:00,239.2681,13.9,13.05,47.84626,-54.09684
2017-09-27 22:50:00+00:00,242.2481,13.9,13.05,47.84626,-54.09684
2017-09-27 23:00:00+00:00,243.6831,13.9,12.97,47.84626,-54.09684
2017-09-27 23:10:00+00:00,243.3548,13.9,12.97,47.84626,-54.09684
2017-09-27 23:20:00+00:00,240.7347,13.9,13.05,47.84626,-54.09684
2017-09-27 23:30:00+00:00,243.0547,13.9,13.05,47.84626,-54.09684
2017-09-27 23:40:00+00:00,243.5048,13.9,13.05,47.84626,-54.09684
2017-09-27 23:50:00+00:00,240.3131,13.9,13.05,47.84626,-54.09684
